Hourly Data Report for September 25, 2017

All times are specified in Local Standard Time (LST). Add 1 hour to adjust for Daylight Saving Time where and when it is observed.

NAPPAN AUTO
NOVA SCOTIA

45°45'34.400" N
64°14'29.200" W
19.80 m
8203702
71311
XNP

Download Data

Hourly Data (September 2017)
Hourly Data Report for September 25, 2017
Temp Definition
°C
Dew Point Temp Definition
°C
Rel Hum Definition
%
Wind Dir Definition
10's deg

Wind Spd Definition
km/h
Visibility Definition
km
Stn Press Definition
kPa
Hmdx Definition


Wind Chill Definition


Weather Definition


TIME
00:00 15.4 14.7 95 3 6   101.49     LegendNANA
01:00 15.1 14.6 97 35 10   101.63     LegendNANA
02:00 15.0 14.1 95 3 4   101.56     LegendNANA
03:00 14.6 13.9 96 3 2   101.57     LegendNANA
04:00 14.5 13.6 94 3 10   101.61     LegendNANA
05:00 14.1 13.1 94 2 3   101.63     LegendNANA
06:00 13.0 12.5 97 2 4   101.69     LegendNANA
07:00 13.5 13.2 98 17 1   101.75     LegendNANA
08:00 15.1 13.8 92 36 2   101.79     LegendNANA
09:00 17.3 14.2 82 3 7   101.77     LegendNANA
10:00 19.0 14.0 73 27 4   101.76     LegendNANA
11:00 20.7 14.7 68 29 3   101.77     LegendNANA
12:00 22.0 14.9 64 9 4   101.73 26   LegendNANA
13:00 23.7 15.6 61 26 5   101.66 28   LegendNANA
14:00 24.6 16.1 59 28 6   101.60 29   LegendNANA
15:00 25.8 16.6 57 29 7   101.53 31   LegendNANA
16:00 25.7 17.0 58 20 14   101.49 31   LegendNANA
17:00 24.8 17.2 63 22 10   101.48 30   LegendNANA
18:00 21.5 16.4 73 20 6   101.48 26   LegendNANA
19:00 20.7 17.0 79 18 10   101.46 26   LegendNANA
20:00 20.3 16.5 79 19 11   101.48 25   LegendNANA
21:00 18.8 15.8 83 20 15   101.45     LegendNANA
22:00 17.5 15.5 88 19 11   101.45     LegendNANA
23:00 17.7 15.9 89 19 14   101.40     LegendNANA

Notes on Data Quality.

Legend

  • E = Estimated
  • M = Missing
  • NA = Not Available
  • ‡ = Partner data that is not subject to review by the National Climate Archives
Date modified: